Temperature
26 26 25 25 29 29 30 31 31 31 30 30 29 28 27 26 25 23 22 21 20 20 20 20 19 19 19 19 19 19 19 19 19 19 19 19 19 19 18 18 18 18 18 18 18 18 18 18 18
26 25 26 29 30 29 30 31 31 31 31 30 29 28 27 25 24 22 22 21 20 20 19 19 19 19 19 19 19 19 19 19 19 19 19 18 18 18 18 18 18 18 18 18 18 18 18 18 18
27 26 28 31 31 30 30 31 31 31 31 30 28 27 26 25 23 22 22 21 20 19 20 20 19 19 19 19 19 19 19 19 19 19 18 18 18 18 18 18 18 18 18 18 18 18 18 18 18
26 29 30 32 31 32 32 32 32 32 31 30 28 27 25 24 23 22 22 21 20 20 20 20 19 19 19 19 19 19 19 19 19 18 18 18 18 18 18 18 18 18 18 18 18 18 18 18 18
29 31 32 32 32 33 33 33 32 32 31 29 27 26 24 24 23 22 22 22 21 20 20 20 20 19 19 19 19 19 19 19 19 18 18 18 18 18 18 18 18 18 18 18 18 18 18 18 18
31 33 31 32 32 33 33 33 32 32 30 29 27 26 24 23 23 23 23 22 21 20 20 20 20 19 19 19 19 19 19 19 19 18 18 18 18 18 18 18 18 18 18 18 18 18 18 18 18
32 32 32 33 32 33 33 33 33 32 31 30 28 26 24 23 23 23 23 22 21 20 20 20 20 19 19 19 19 19 19 19 19 18 18 18 18 18 18 18 18 18 18 18 18 18 18 18 18
32 33 33 33 33 33 33 33 32 32 31 30 29 27 24 23 23 23 23 22 21 21 20 19 19 19 19 19 19 19 19 19 19 18 18 18 18 18 18 18 18 18 18 18 18 18 18 18 18
33 33 33 34 33 33 34 33 32 31 31 30 29 27 25 24 23 23 22 22 21 21 20 20 19 19 19 19 19 19 19 19 18 18 18 18 18 18 18 18 18 18 18 18 18 18 18 18 18
34 33 34 35 35 34 34 33 32 31 30 29 27 26 25 24 24 23 23 22 22 21 21 20 20 19 19 19 19 19 18 19 18 18 18 18 18 18 18 18 18 18 18 18 18 18 18 18 18
34 34 35 35 35 35 34 34 33 31 30 29 27 25 25 24 24 23 23 22 21 21 21 20 20 20 20 19 19 19 18 19 18 18 18 18 18 18 18 18 18 18 18 18 18 18 18 18 18
35 35 35 35 35 35 34 34 33 32 31 29 27 26 25 25 24 24 23 22 21 21 21 21 20 20 20 20 19 19 19 19 19 18 18 18 18 18 18 18 18 18 18 18 18 18 18 18 18
35 35 35 35 35 35 34 34 33 32 30 29 27 26 26 25 25 24 23 22 22 21 21 20 20 20 20 20 19 19 19 19 19 19 19 18 18 18 18 18 18 18 18 18 18 18 18 18 18
35 35 35 35 35 35 34 34 33 31 30 29 27 27 26 26 25 24 23 23 22 21 21 20 20 20 20 20 19 19 19 19 19 19 19 18 18 18 18 18 18 18 18 18 18 18 18 18 18
34 35 35 35 35 35 34 33 32 31 30 29 28 27 26 26 26 25 24 23 22 21 21 20 20 20 20 19 19 19 19 19 19 19 19 19 18 18 18 18 18 18 18 18 18 18 18 18 18
34 34 33 35 35 35 34 31 32 31 30 30 29 28 27 26 26 25 24 23 22 22 21 20 20 20 20 20 19 19 19 19 19 19 19 19 18 18 18 18 18 18 18 18 18 18 18 18 18
33 33 33 34 35 35 33 32 32 31 31 30 29 28 27 26 26 25 24 23 22 22 21 20 20 20 20 20 20 19 19 19 19 19 19 19 19 18 18 18 18 18 18 18 18 18 18 18 18
32 33 33 34 35 35 33 32 32 32 31 31 30 28 27 27 26 25 24 23 22 22 21 21 20 20 20 20 20 19 19 19 19 19 19 19 19 19 19 18 18 18 18 18 18 18 18 18 18
34 33 33 34 35 34 33 32 32 32 32 31 30 29 27 27 26 25 24 23 22 21 21 21 20 20 20 19 19 19 19 19 19 19 19 19 19 19 19 19 18 18 18 18 18 18 18 18 18
33 33 33 34 35 34 33 33 33 33 32 32 31 29 28 27 26 25 24 23 22 21 21 21 21 20 20 20 20 19 19 19 19 19 19 19 19 19 19 19 19 18 18 18 18 18 18 18 18
33 33 33 33 34 34 33 32 32 32 32 32 32 30 29 28 27 25 24 23 22 22 21 21 21 21 21 20 20 19 19 19 19 19 19 19 19 19 19 19 19 19 18 18 18 18 18 18 18
32 33 34 33 32 32 32 31 31 31 32 32 32 31 30 29 27 26 24 24 23 22 22 21 21 21 21 20 20 20 19 19 19 19 19 19 19 19 19 19 19 19 19 18 18 18 18 18 18
32 34 33 33 32 32 32 31 32 31 30 31 32 32 31 30 28 27 25 24 23 22 22 21 21 21 21 21 20 20 20 20 20 19 19 19 19 19 19 19 19 19 19 19 18 18 18 18 18
33 33 33 32 32 30 31 31 31 32 31 32 32 32 31 30 29 28 26 25 24 23 22 22 21 21 21 21 20 20 20 20 20 19 19 19 19 19 19 19 19 19 19 19 19 18 18 18 18
32 31 30 29 29 29 32 31 31 32 32 33 32 32 32 31 30 28 27 25 24 23 23 22 21 21 21 21 21 20 20 20 20 20 19 19 19 19 19 19 19 19 19 19 19 18 18 18 18
31 31 29 28 29 30 31 31 32 33 33 33 32 32 31 31 30 29 27 26 25 24 23 22 21 21 21 21 21 20 20 20 20 20 19 19 19 19 19 19 19 19 19 18 18 18 18 18 18
31 31 32 31 31 30 31 32 32 33 33 32 32 31 31 31 30 29 28 26 25 24 23 22 22 21 21 21 21 20 20 20 19 19 19 19 19 19 19 19 19 19 19 18 18 18 18 18 18
32 32 31 30 29 29 30 31 31 31 31 32 31 31 31 30 29 28 27 26 25 24 23 22 21 21 21 20 20 20 20 20 20 19 19 19 19 19 19 19 19 19 18 18 18 18 18 18 18
31 31 31 30 30 29 29 30 32 32 32 32 31 31 30 30 29 28 27 26 25 24 23 22 21 21 20 20 20 20 20 20 20 19 19 19 19 19 19 18 19 18 18 18 18 18 18 18 18
31 31 31 29 29 30 29 29 32 32 32 32 31 30 29 29 28 28 26 25 25 24 23 22 21 20 20 20 20 20 19 19 19 19 19 19 19 18 18 18 18 18 18 18 18 18 18 18 17
Wind_Speed
10 12 10 6 3 6 15 17 17 16 17 16 17 16 19 17 12 13 12 16 17 16 16 16 16 16 16 16 17 17 17 17 17 17 17 17 17 18 18 18 18 18 19 19 19 19 19 18 17
10 13 8 4 2 10 14 16 16 15 15 16 19 21 21 19 17 15 14 16 18 17 16 17 17 17 16 17 17 17 17 16 17 17 17 17 17 18 18 18 19 19 20 19 19 19 18 17 15
11 13 6 2 9 12 15 15 14 14 14 16 18 17 14 14 16 14 15 17 17 17 18 18 18 17 17 16 16 16 16 16 17 17 17 17 17 18 19 19 19 20 20 19 19 18 17 15 13
8 6 3 3 13 14 14 13 13 13 14 16 16 13 14 14 16 17 17 17 18 18 19 18 17 17 16 16 16 15 16 16 16 16 17 17 17 18 18 19 19 19 19 18 18 17 15 13 11
9 5 2 7 13 14 14 14 14 14 17 19 20 18 16 18 19 18 16 17 18 18 18 17 17 17 16 16 16 16 16 16 16 16 17 17 17 18 18 18 18 18 18 17 16 16 14 11 9
7 4 1 8 13 13 12 12 14 14 17 19 20 18 14 16 16 15 15 16 18 19 18 17 17 17 16 16 15 15 15 16 16 16 16 16 16 17 17 17 17 16 16 16 15 14 12 9 7
9 6 1 8 13 12 11 11 13 13 14 15 17 16 13 15 14 13 13 15 17 18 17 16 16 15 16 15 15 15 15 15 15 15 15 15 16 16 17 16 15 15 15 14 13 12 10 8 5
8 6 1 7 12 13 11 11 13 14 13 13 14 12 15 17 16 14 13 14 15 16 15 15 15 15 15 14 14 14 14 14 14 14 14 15 15 16 16 15 14 13 12 12 11 10 9 7 4
9 6 2 7 9 12 12 12 14 13 11 10 13 19 21 20 18 16 14 13 11 13 12 13 13 13 14 14 14 14 13 12 12 11 12 13 12 13 13 14 13 12 11 10 10 9 7 5 3
5 2 5 7 10 10 11 11 13 12 12 15 19 21 21 19 18 16 14 14 12 11 11 11 11 11 12 12 12 12 11 10 8 10 10 8 8 12 14 14 12 10 9 8 8 8 6 5 4
4 2 4 5 8 8 9 10 11 12 12 17 20 22 21 19 16 15 14 14 12 10 10 10 8 7 9 9 9 7 9 9 8 8 8 8 9 11 12 10 9 8 8 7 8 8 6 6 3
5 2 2 4 6 5 6 8 9 12 14 19 20 21 20 18 16 15 14 14 12 10 10 10 9 5 5 7 7 7 7 7 7 7 8 7 4 6 7 6 7 7 6 5 6 5 4 3 2
6 4 2 2 3 4 5 7 11 13 16 19 20 20 19 17 16 15 15 14 13 10 10 9 8 7 5 4 2 5 6 6 8 6 6 7 5 4 4 4 3 4 5 4 3 2 3 3 2
6 5 5 5 4 4 5 7 10 13 17 18 19 18 18 17 16 15 14 14 13 12 11 10 9 8 5 4 1 3 5 6 6 6 6 5 6 5 4 3 2 2 3 3 3 3 3 2 2
8 8 8 7 7 6 6 6 9 13 15 17 17 16 16 16 16 15 14 13 14 12 11 10 9 9 6 5 4 4 5 7 5 6 7 5 6 6 5 3 2 3 4 4 3 2 2 2 2
11 11 10 9 9 8 7 7 11 13 15 15 16 16 15 14 15 15 14 12 12 12 11 10 10 11 7 4 3 2 4 6 5 7 8 6 5 6 4 3 3 4 4 3 2 1 1 1 1
13 14 12 10 11 8 7 7 13 14 14 15 15 15 15 15 15 14 15 14 12 11 11 9 8 10 9 7 4 2 2 3 4 6 7 7 7 6 4 2 3 4 3 2 3 2 1 1 1
12 13 13 12 11 9 8 8 10 13 15 15 15 14 14 16 14 15 15 14 12 12 11 9 8 9 8 6 4 2 3 3 3 4 6 8 7 6 4 2 4 4 2 2 1 2 0 1 2
14 11 12 10 9 9 8 8 10 11 12 13 14 15 15 15 15 15 14 15 14 12 12 10 10 9 7 6 6 5 4 4 3 4 7 8 7 7 5 2 3 3 2 3 2 2 2 3 3
16 14 13 8 9 7 7 9 10 10 11 13 14 15 16 16 16 15 14 14 14 13 12 11 10 10 8 6 5 4 4 4 5 4 6 8 7 6 7 5 4 4 3 3 3 2 2 3 2
17 15 13 9 7 8 9 11 10 10 10 11 13 14 16 17 18 17 16 15 15 15 14 13 11 11 10 8 6 5 4 3 3 4 5 6 8 8 6 6 5 3 4 3 4 4 4 3 3
15 15 14 11 9 9 11 10 10 12 12 13 13 14 15 16 17 18 17 16 15 15 14 12 12 11 10 9 8 8 6 5 5 4 5 6 7 7 7 6 5 4 3 3 5 5 4 5 4
14 13 13 12 11 11 12 11 8 12 14 15 14 14 15 16 17 19 18 16 15 16 15 13 12 11 10 9 9 8 7 5 5 5 5 6 5 7 7 6 5 4 4 4 4 4 5 4 5
14 13 11 12 11 14 14 13 8 9 11 12 14 14 14 15 15 17 17 16 14 15 14 14 13 12 11 10 10 9 8 6 5 5 5 5 4 5 5 6 4 4 4 4 5 4 6 5 5
15 12 9 10 11 13 14 13 8 7 11 11 10 11 13 13 13 15 16 16 14 14 13 12 12 12 11 11 10 9 8 7 7 6 5 5 4 4 5 5 4 4 4 5 4 5 5 5 6
18 17 13 10 11 12 14 13 8 7 7 7 7 7 10 11 12 12 14 15 14 13 11 11 12 11 11 10 9 8 8 7 6 6 5 5 4 4 4 5 5 5 5 5 4 4 5 5 6
18 19 19 15 14 10 9 11 7 7 7 6 7 8 9 9 11 11 12 14 13 12 11 11 11 10 10 10 9 8 8 7 6 5 5 4 4 4 3 4 5 4 4 4 4 4 5 4 5
18 17 13 13 11 11 10 10 10 12 11 9 7 8 7 7 8 9 10 10 10 9 10 10 10 10 9 9 8 8 7 7 6 5 6 5 4 3 3 4 5 4 4 4 3 4 4 5 5
18 19 14 12 12 13 9 3 4 10 11 10 9 8 8 7 8 8 8 10 10 9 9 8 8 9 8 8 7 6 8 8 6 5 5 5 4 4 4 4 3 3 4 3 3 4 4 4 4
18 18 17 12 10 10 9 3 1 8 9 10 10 9 8 6 7 8 8 9 9 9 9 8 8 8 7 7 6 6 5 6 6 5 4 4 4 3 3 3 3 3 2 2 2 4 4 3 4
Wind_Direction
274 261 243 259 255 65 65 63 65 69 68 64 66 70 65 60 75 96 113 111 107 105 104 99 94 94 93 92 93 94 93 92 91 91 90 91 94 95 96 97 96 100 101 101 101 100 100 100 101
284 278 257 254 64 71 70 70 68 69 76 76 72 74 73 72 87 105 112 112 110 110 108 101 98 96 94 94 95 95 95 95 94 92 91 92 94 96 97 98 96 97 100 99 100 100 101 102 105
272 264 270 245 75 77 76 76 79 76 79 82 76 67 68 86 95 108 116 117 112 107 104 104 102 99 98 98 97 98 97 96 96 94 92 91 94 94 94 95 95 97 99 99 99 99 100 102 105
274 262 235 78 77 79 83 87 86 86 83 84 85 78 76 89 103 114 120 117 114 110 108 108 107 104 102 101 101 100 99 97 96 95 95 94 94 94 94 95 96 96 97 97 98 99 101 100 100
258 267 265 87 86 84 82 84 82 78 79 82 86 93 90 95 111 121 124 122 116 110 111 112 110 107 105 103 103 101 100 101 100 99 98 96 96 96 96 97 98 98 97 98 99 100 99 97 94
278 267 302 100 94 89 88 91 93 92 98 103 103 102 101 113 120 127 126 122 118 116 114 115 113 110 108 106 105 104 103 103 103 103 102 101 100 100 100 100 100 100 100 100 100 101 100 97 88
276 298 256 108 105 96 89 89 90 90 96 102 110 110 119 125 127 124 122 120 118 118 122 123 121 116 112 110 110 110 109 108 109 110 110 109 108 106 104 102 101 102 103 104 105 106 105 101 91
280 299 287 105 107 101 98 93 92 94 91 110 121 121 137 137 136 129 120 113 117 122 128 129 128 129 127 119 116 116 116 117 118 120 120 119 117 115 113 108 105 105 107 111 114 115 113 110 103
270 276 43 97 104 111 114 105 98 97 97 86 93 121 137 141 138 131 125 119 120 124 129 131 134 141 135 129 128 128 127 129 131 132 136 138 134 126 121 112 114 114 116 120 126 126 129 135 154
267 297 68 81 108 114 115 120 121 114 109 99 103 119 135 145 142 140 140 135 131 129 131 130 138 144 138 133 141 146 137 143 145 137 150 158 131 123 120 124 125 126 129 132 143 148 159 186 194
277 316 70 95 103 109 116 116 118 121 127 130 131 138 146 149 147 149 146 139 136 139 134 130 129 131 134 134 149 141 130 143 143 144 154 153 135 130 130 136 140 148 156 159 154 172 193 205 210
259 292 65 87 93 112 111 111 110 116 121 132 138 145 151 155 155 153 146 143 145 147 138 131 125 113 110 127 134 141 140 146 146 160 162 137 128 125 131 141 158 162 167 165 169 183 175 141 114
238 245 182 150 155 134 125 124 113 108 117 129 139 149 157 159 157 152 151 148 147 148 138 128 126 119 105 95 137 134 134 139 141 149 136 142 137 134 132 131 145 163 155 156 150 134 103 91 72
242 243 223 198 185 169 163 141 126 126 131 136 146 156 163 160 159 155 153 149 153 156 147 139 139 130 126 133 125 120 127 122 136 141 138 146 127 128 129 141 152 146 129 116 107 121 123 117 92
255 247 233 206 198 186 177 155 143 142 141 147 154 159 164 161 160 158 155 154 159 159 150 146 149 143 151 162 178 156 146 148 143 134 140 146 136 134 142 152 177 149 135 128 129 131 136 164 157
240 239 235 206 200 190 195 177 153 157 155 157 160 161 165 163 164 160 155 158 158 156 150 161 164 153 159 174 205 182 155 139 143 144 150 152 139 150 161 167 157 145 149 156 145 194 165 163 152
227 228 221 207 199 192 195 188 157 168 166 165 165 162 165 169 168 160 161 165 160 152 151 163 155 153 163 170 183 215 125 126 144 150 149 155 163 167 181 154 129 151 158 174 192 154 175 183 209
225 224 220 209 186 192 202 177 170 174 173 170 165 166 172 174 172 164 165 166 160 155 154 162 160 156 163 168 173 219 172 163 169 158 153 159 171 177 182 158 160 176 176 173 148 123 175 257 252
245 240 239 218 183 190 204 193 187 189 179 175 171 171 178 176 171 166 168 167 164 160 160 166 171 166 172 176 180 193 188 183 181 185 164 167 180 180 188 199 166 193 187 170 173 163 207 237 243
249 249 247 221 180 191 219 218 203 194 192 185 178 178 177 173 170 169 172 172 169 165 168 172 178 173 182 183 185 187 184 189 190 190 162 171 184 190 195 196 197 193 187 190 202 194 224 246 231
240 246 249 235 198 200 230 235 217 200 206 197 185 183 181 177 175 173 177 179 178 175 176 182 181 177 188 183 183 198 183 210 200 179 169 184 189 197 212 188 205 200 194 198 207 207 215 236 244
234 240 251 242 231 235 228 243 215 192 205 207 196 188 185 181 177 176 180 181 182 180 180 180 178 179 185 187 193 196 194 201 202 188 182 188 196 200 205 201 203 205 213 203 215 213 220 225 243
234 239 247 249 236 247 242 245 228 188 201 203 197 192 187 184 182 178 182 182 184 183 181 179 178 181 182 190 195 202 205 204 202 197 186 189 195 206 208 204 200 206 219 217 224 223 223 230 240
232 238 236 248 246 241 242 248 245 206 200 204 198 193 187 183 181 176 178 176 182 182 181 180 177 182 182 192 196 201 207 206 207 204 193 198 205 208 208 205 200 208 220 226 223 227 228 233 244
221 219 214 225 232 241 239 242 237 205 192 199 192 190 180 176 177 174 174 173 178 181 181 179 175 181 184 193 199 200 204 207 213 211 203 205 210 202 208 211 200 211 217 224 223 227 238 236 244
213 217 218 220 225 233 229 231 228 188 165 168 174 178 173 172 172 171 171 171 177 179 176 174 172 179 183 190 198 199 199 208 212 209 203 204 222 211 199 199 204 210 217 228 222 230 234 234 238
212 222 230 242 258 252 230 211 189 156 154 157 172 176 175 173 170 168 170 171 175 178 175 176 170 175 182 188 190 194 197 202 206 198 207 208 213 223 197 192 210 213 222 232 222 235 240 239 237
225 221 230 240 258 262 243 212 192 168 170 174 180 169 158 155 161 161 160 157 163 168 167 170 168 173 179 184 192 192 192 199 202 200 197 208 217 216 203 201 208 212 221 227 229 244 244 247 249
217 221 228 238 249 252 251 246 217 160 161 167 169 161 153 154 157 150 148 150 153 157 159 156 160 166 176 183 190 190 190 192 193 203 203 207 213 208 207 203 209 218 227 231 233 250 246 248 256
220 223 222 230 241 257 263 269 103 135 147 158 152 141 132 131 128 128 133 138 143 147 147 152 158 165 172 171 179 188 183 181 185 195 202 205 202 203 196 205 213 225 228 240 249 264 271 265 270
Height
1476 1475 1475 1478 1476 1477 1479 1474 1470 1474 1476 1479 1481 1483 1489 1492 1499 1514 1517 1517 1518 1518 1518 1519 1519 1520 1521 1522 1522 1523 1524 1525 1526 1527 1528 1529 1529 1530 1531 1532 1533 1534 1536 1537 1539 1540 1542 1544 1546
1477 1476 1479 1477 1477 1489 1485 1475 1476 1476 1479 1481 1484 1489 1493 1500 1506 1512 1517 1519 1520 1521 1521 1522 1523 1524 1524 1525 1526 1527 1528 1529 1530 1531 1531 1532 1533 1533 1535 1535 1536 1537 1539 1540 1542 1543 1545 1547 1549
1478 1478 1479 1472 1476 1485 1484 1476 1477 1478 1481 1484 1489 1494 1500 1507 1511 1515 1519 1521 1523 1523 1524 1525 1526 1527 1528 1529 1530 1530 1531 1532 1533 1534 1535 1536 1536 1537 1538 1539 1540 1541 1542 1544 1545 1546 1548 1550 1552
1480 1479 1477 1473 1478 1473 1473 1475 1476 1479 1482 1485 1491 1500 1507 1511 1514 1518 1521 1523 1525 1526 1527 1527 1529 1530 1531 1532 1533 1534 1534 1535 1536 1537 1538 1539 1540 1540 1542 1542 1544 1545 1546 1547 1549 1550 1551 1553 1554
1482 1479 1475 1476 1475 1471 1472 1475 1478 1481 1485 1490 1497 1505 1512 1516 1518 1521 1523 1526 1527 1528 1529 1530 1531 1532 1533 1534 1536 1537 1538 1538 1539 1540 1541 1542 1543 1544 1545 1546 1547 1548 1550 1551 1552 1553 1554 1556 1557
1481 1474 1481 1482 1477 1472 1473 1476 1480 1483 1488 1494 1501 1508 1516 1520 1521 1523 1526 1528 1529 1530 1531 1532 1534 1535 1536 1537 1539 1540 1540 1541 1542 1543 1544 1545 1546 1547 1548 1549 1551 1552 1553 1554 1555 1556 1557 1558 1560
1480 1474 1479 1474 1477 1476 1476 1477 1480 1484 1489 1494 1500 1508 1517 1521 1523 1525 1528 1530 1531 1532 1533 1535 1536 1538 1539 1540 1541 1542 1543 1544 1545 1546 1547 1548 1549 1550 1551 1553 1554 1555 1556 1557 1558 1559 1560 1561 1562
1477 1474 1474 1471 1475 1477 1477 1479 1483 1487 1492 1496 1499 1507 1516 1521 1524 1527 1529 1532 1534 1535 1536 1538 1539 1540 1541 1543 1544 1545 1546 1547 1548 1549 1550 1551 1552 1553 1555 1556 1556 1557 1558 1560 1561 1562 1563 1564 1565
1476 1476 1477 1472 1474 1475 1476 1480 1486 1489 1493 1496 1499 1506 1514 1520 1524 1528 1531 1533 1536 1537 1539 1540 1541 1543 1544 1545 1546 1547 1548 1549 1550 1552 1553 1554 1555 1556 1557 1558 1559 1560 1561 1562 1563 1564 1565 1566 1568
1472 1475 1473 1467 1469 1472 1475 1480 1485 1490 1495 1500 1505 1511 1516 1520 1524 1528 1531 1534 1537 1539 1541 1542 1543 1545 1547 1548 1548 1550 1551 1552 1553 1554 1555 1556 1558 1559 1559 1561 1562 1563 1563 1564 1565 1566 1567 1568 1569
1470 1471 1468 1468 1470 1473 1475 1479 1483 1489 1494 1501 1506 1512 1517 1521 1525 1528 1531 1534 1537 1540 1542 1543 1545 1547 1549 1550 1551 1552 1553 1554 1555 1556 1557 1559 1560 1561 1562 1562 1563 1564 1565 1566 1567 1568 1569 1570 1571
1472 1469 1469 1469 1472 1474 1476 1479 1483 1488 1494 1500 1506 1511 1516 1521 1524 1528 1531 1534 1537 1540 1542 1544 1546 1548 1550 1551 1552 1554 1555 1555 1557 1558 1559 1561 1562 1563 1564 1564 1565 1566 1567 1568 1568 1569 1570 1571 1572
1471 1470 1471 1473 1474 1475 1478 1480 1484 1489 1495 1501 1507 1512 1516 1520 1524 1528 1531 1534 1537 1540 1543 1544 1546 1548 1550 1551 1553 1555 1556 1557 1558 1559 1561 1562 1563 1564 1565 1566 1566 1567 1568 1569 1570 1571 1572 1572 1573
1471 1471 1471 1472 1474 1476 1478 1481 1484 1491 1496 1502 1507 1512 1515 1519 1523 1527 1531 1534 1537 1540 1542 1544 1546 1548 1549 1551 1553 1555 1557 1558 1559 1560 1561 1563 1564 1565 1566 1566 1567 1568 1569 1570 1571 1571 1572 1573 1573
1473 1472 1471 1471 1473 1474 1478 1484 1486 1491 1496 1501 1506 1510 1514 1518 1522 1526 1529 1533 1536 1539 1541 1543 1545 1547 1549 1551 1554 1556 1557 1558 1559 1560 1561 1563 1564 1565 1566 1567 1568 1569 1570 1571 1571 1572 1572 1573 1574
1473 1475 1478 1471 1471 1473 1481 1492 1486 1489 1495 1500 1505 1509 1514 1518 1521 1525 1528 1532 1535 1538 1540 1543 1546 1546 1549 1551 1553 1556 1558 1559 1560 1560 1561 1563 1564 1565 1566 1567 1568 1569 1570 1571 1572 1572 1572 1573 1574
1476 1481 1480 1473 1468 1470 1478 1487 1485 1488 1491 1497 1502 1507 1513 1517 1520 1523 1527 1530 1533 1536 1538 1542 1545 1546 1548 1550 1553 1555 1557 1558 1559 1560 1561 1562 1563 1564 1565 1567 1568 1569 1570 1571 1572 1572 1572 1573 1573
1479 1476 1474 1472 1465 1469 1476 1481 1483 1484 1488 1493 1499 1505 1510 1514 1518 1522 1525 1529 1532 1535 1537 1540 1543 1545 1547 1549 1552 1554 1556 1557 1559 1560 1561 1561 1562 1564 1565 1566 1567 1568 1569 1570 1571 1571 1571 1572 1572
1467 1471 1472 1466 1461 1469 1476 1480 1480 1483 1486 1490 1496 1501 1507 1512 1516 1520 1524 1527 1530 1533 1535 1538 1540 1543 1545 1548 1550 1552 1554 1556 1557 1559 1560 1560 1562 1563 1564 1565 1566 1567 1568 1569 1569 1570 1570 1570 1571
1469 1472 1470 1464 1461 1469 1476 1479 1477 1480 1483 1487 1491 1497 1503 1508 1513 1517 1522 1525 1527 1530 1532 1535 1538 1541 1543 1546 1549 1551 1553 1554 1556 1557 1558 1559 1560 1562 1563 1563 1564 1565 1566 1567 1567 1568 1568 1568 1569
1470 1472 1470 1468 1464 1468 1477 1483 1478 1477 1480 1484 1488 1493 1498 1503 1509 1514 1518 1522 1525 1527 1529 1533 1536 1538 1541 1544 1547 1550 1551 1553 1555 1556 1556 1557 1558 1559 1560 1561 1563 1563 1564 1564 1565 1566 1566 1567 1567
1475 1465 1465 1466 1476 1480 1478 1494 1481 1477 1481 1481 1485 1489 1493 1499 1505 1510 1515 1518 1522 1525 1527 1530 1533 1536 1539 1542 1544 1546 1548 1550 1552 1553 1554 1555 1556 1557 1558 1559 1560 1561 1562 1562 1563 1563 1564 1565 1565
1467 1462 1465 1467 1474 1481 1478 1488 1481 1473 1481 1479 1480 1484 1489 1495 1500 1505 1510 1514 1519 1522 1525 1527 1530 1533 1536 1538 1541 1543 1546 1548 1550 1551 1552 1553 1554 1555 1556 1557 1558 1558 1559 1560 1560 1561 1561 1562 1562
1463 1465 1468 1470 1475 1494 1484 1487 1487 1473 1474 1474 1475 1479 1485 1490 1496 1501 1507 1511 1516 1520 1523 1525 1527 1530 1532 1535 1538 1540 1542 1545 1547 1548 1550 1551 1552 1553 1553 1555 1555 1556 1556 1557 1557 1558 1558 1559 1559
1465 1477 1493 1500 1499 1496 1476 1480 1478 1465 1464 1468 1473 1476 1481 1487 1493 1498 1503 1508 1512 1516 1519 1522 1524 1526 1529 1532 1535 1537 1539 1541 1543 1545 1547 1548 1549 1550 1550 1552 1552 1552 1553 1553 1554 1554 1555 1555 1556
1467 1473 1493 1505 1502 1490 1475 1479 1467 1457 1461 1467 1470 1474 1479 1484 1490 1495 1500 1505 1509 1513 1517 1519 1521 1524 1526 1529 1532 1534 1536 1538 1540 1542 1543 1545 1546 1547 1548 1549 1549 1549 1550 1550 1551 1551 1551 1552 1552
1466 1468 1465 1477 1479 1486 1477 1468 1461 1458 1462 1466 1471 1474 1479 1483 1488 1493 1498 1502 1507 1510 1514 1517 1519 1521 1524 1526 1528 1531 1533 1534 1536 1538 1540 1541 1543 1545 1545 1545 1545 1546 1547 1547 1548 1548 1548 1548 1548
1456 1462 1468 1478 1493 1496 1483 1475 1470 1465 1465 1467 1471 1473 1478 1483 1487 1492 1496 1500 1505 1508 1512 1515 1517 1519 1521 1524 1526 1527 1529 1531 1533 1534 1536 1537 1540 1541 1542 1542 1542 1543 1544 1544 1544 1544 1545 1545 1545
1460 1463 1465 1470 1474 1488 1494 1483 1454 1457 1460 1465 1470 1473 1478 1482 1486 1491 1495 1499 1503 1507 1510 1512 1515 1517 1519 1521 1523 1525 1526 1528 1530 1531 1533 1534 1536 1537 1538 1539 1540 1540 1541 1541 1541 1541 1542 1542 1542
1453 1457 1462 1479 1480 1475 1484 1485 1453 1455 1459 1464 1469 1474 1479 1484 1488 1491 1494 1498 1502 1505 1508 1511 1513 1515 1517 1519 1521 1523 1524 1526 1527 1528 1530 1531 1532 1534 1535 1536 1537 1538 1538 1538 1538 1538 1539 1539 1538